Вернуться в каталог

NOAA 16 DEB

АктивенSSO
NORAD 42393·DEBRIS·🇺🇸 United States

Запущен Sep 21, 2000 с Vandenberg Space Force Base

Loading…

Ближайшие Пролёты (ближайшие 24 часа)

TLE

СвежийSource: Space-Track

Эпоха: Sep 14, 2026, 03:03 UTC

1 42393U 00055SM  26257.12726689  .00004496  00000-0  17612-2 0  9996
2 42393  98.9201 352.3638 0035424   2.1976 357.9355 14.29621482541966

Отслеживайте NOAA 16 DEB в реальном времени с AllMySat

Download on the App Store